Location: Unspecified
(50.0830°N, 0.0000°E)
Time: 23:53:43
(UTC+00:00)

Envisat - Pass Details

Date: 22 November 2019
Orbit: 764 x 766 km, 98.1° (Epoch: 12 December)

Event Time Altitude Azimuth Distance (km) Brightness Sun altitude
Rises 17:05:54 0° 143° (SE) 3,224 6.1 -9.2°
Reaches altitude 10° 17:08:17 10° 137° (SE) 2,301 5.3 -9.5°
Maximum altitude 17:13:03 43° 67° (ENE) 1,071 3.3 -10.2°
Drops below altitude 10° 17:17:51 10° 357° (N) 2,315 5.3 -11.0°
Sets 17:20:15 0° 351° (N) 3,246 6.2 -11.3°
